Powrót do katalogu

HAWK-2B

AktywnyMilitariaSSO
NORAD 47508·PAYLOAD·🇺🇸 United States

Wystrzelony Jan 24, 2021 z Cape Canaveral Space Force Station

Loading…

Następne Przeloty (najbliższe 24 godziny)

TLE

ŚwieżeSource: Space-Track

Epoka: Sep 14, 2026, 13:41 UTC

1 47508U 21006CZ  26257.57069272  .00005472  00000-0  15920-3 0  9991
2 47508  97.2109 299.0448 0005228 231.5200 128.5576 15.35827735313210

Śledź HAWK-2B w czasie rzeczywistym z AllMySat

Download on the App Store